sat.trackr.live / text

‹ back to catalog

STARLINK-5525

NORAD 57218 · 2023-094A

PAYLOAD ACTIVE UNKNOWN

§ Identity

Operator
Country
US
Launch date
2023-07-07
Launch site
AFWTR
Launch vehicle
Mass (kg)
RCS (m²)

Purposes: comms

External: N2YO · Heavens-Above · Gunter

§ Orbital elements

Epoch: 2026-09-20T14:03:11.158848Z

Period
94.27 min
Inclination
43.0030°
Eccentricity
0.0001097
Mean motion
15.27579516 rev/d
Perigee alt
482.3 km
Apogee alt
483.8 km
Semi-major
6,861.2 km
B*
1.6885e-5
RAAN
9.9354°
Arg perigee
270.5183°
Mean anomaly
89.5543°
Rev number
17,692

§ Raw data

STARLINK-55251 57218U 23094A   26263.58554582  .00000203  00000+0  16885-4 0  99982 57218  43.0030   9.9354 0001097 270.5183  89.5543 15.27579516176925

JSON: /api/v1/satellites/57218 · /tle

For live sub-satellite position, see the globe view (requires WebGL).

§ Visibility from observer

Set your observer location to see the next 7 days of passes ≥ 10°. The values pass through the URL so the page stays shareable.

No JS? Fill the form by hand. The geolocation button needs JavaScript.